When you browse on this site, cookies collect data to enhance your experience and personalize the content and advertising you see.
Visit our Privacy Policy to learn more. By continuing to use the site, you agree to this use of cookies and data.
  • In Romania
  • List of Countries
  • For 7 days
  • Water Temperature
  • Satellite Maps
  • Weather Map
  • Weather Widgets
  • user-avatar
    Login

    Hourly Weather Dalewice

    Today, 22 February, Friday

    Time Temperature Precipitation Wind Pressure Humidity
    00:00 +5°C° 0.4 mm 5 mps 744 mmHg 87%
    01:00 +4°C° 0 mm 4 mps 744 mmHg 87%
    02:00 +5°C° 0.6 mm 4 mps 744 mmHg 88%
    03:00 +5°C° 0.6 mm 5 mps 744 mmHg 89%
    04:00 +5°C° 0.6 mm 5 mps 744 mmHg 90%
    05:00 +2°C° 0.6 mm 6 mps 745 mmHg 87%
    06:00 -1°C° 0.6 mm 7 mps 746 mmHg 85%
    07:00 -2°C° 0.6 mm 7 mps 747 mmHg 82%
    08:00 -3°C° 0.1 mm 7 mps 748 mmHg 76%
    09:00 -3°C° 0.1 mm 7 mps 749 mmHg 71%
    10:00 -4°C° 0.1 mm 7 mps 751 mmHg 65%
    11:00 -3°C° 0 mm 7 mps 752 mmHg 58%
    12:00 -3°C° 0 mm 7 mps 752 mmHg 52%
    13:00 -3°C° 0 mm 7 mps 753 mmHg 45%
    14:00 -3°C° 0 mm 7 mps 754 mmHg 45%
    15:00 -4°C° 0 mm 6 mps 754 mmHg 45%
    16:00 -4°C° 0 mm 6 mps 755 mmHg 45%
    17:00 -5°C° 0 mm 6 mps 756 mmHg 46%
    18:00 -6°C° 0 mm 5 mps 756 mmHg 47%
    19:00 -6°C° 0 mm 5 mps 757 mmHg 47%
    20:00 -6°C° 0 mm 5 mps 758 mmHg 45%
    21:00 -6°C° 0 mm 5 mps 758 mmHg 42%
    22:00 -6°C° 0 mm 5 mps 759 mmHg 39%
    23:00 -6°C° 0 mm 5 mps 759 mmHg 40%

    Tomorrow, 23 February, Saturday

    Time Temperature Precipitation Wind Pressure Humidity
    00:00 -6°C° 0 mm 5 mps 760 mmHg 40%
    01:00 -7°C° 0 mm 4 mps 760 mmHg 40%
    02:00 -7°C° 0 mm 4 mps 760 mmHg 42%
    03:00 -7°C° 0 mm 4 mps 760 mmHg 44%
    04:00 -6°C° 0 mm 3 mps 760 mmHg 45%
    05:00 -6°C° 0 mm 3 mps 760 mmHg 47%
    06:00 -6°C° 0 mm 3 mps 761 mmHg 48%
    07:00 -6°C° 0 mm 3 mps 761 mmHg 50%
    08:00 -6°C° 0 mm 3 mps 761 mmHg 47%
    09:00 -5°C° 0 mm 3 mps 761 mmHg 45%
    10:00 -4°C° 0 mm 3 mps 761 mmHg 42%
    11:00 -4°C° 0 mm 3 mps 761 mmHg 40%
    12:00 -2°C° 0 mm 3 mps 761 mmHg 37%
    13:00 -2°C° 0 mm 3 mps 761 mmHg 34%
    14:00 -2°C° 0 mm 2 mps 761 mmHg 35%
    15:00 -2°C° 0 mm 2 mps 761 mmHg 35%
    16:00 -2°C° 0 mm 2 mps 761 mmHg 36%
    17:00 0°C° 0 mm 1 mps 761 mmHg 39%
    18:00 -1°C° 0 mm 1 mps 761 mmHg 43%
    19:00 -2°C° 0 mm 1 mps 761 mmHg 46%
    20:00 -2°C° 0 mm 1 mps 761 mmHg 47%
    21:00 -2°C° 0 mm 1 mps 761 mmHg 48%
    22:00 -3°C° 0 mm 0 mps 761 mmHg 49%
    23:00 -2°C° 0 mm 1 mps 761 mmHg 49%

    Day after tomorrow, 24 February, Sunday

    Time Temperature Precipitation Wind Pressure Humidity
    00:00 -2°C° 0 mm 1 mps 761 mmHg 49%
    01:00 -2°C° 0 mm 1 mps 760 mmHg 49%
    02:00 -2°C° 0 mm 1 mps 760 mmHg 48%
    03:00 -1°C° 0 mm 1 mps 760 mmHg 46%
    04:00 -1°C° 0 mm 1 mps 760 mmHg 45%
    05:00 -1°C° 0 mm 1 mps 760 mmHg 45%
    06:00 -1°C° 0 mm 1 mps 760 mmHg 44%
    07:00 -1°C° 0 mm 1 mps 760 mmHg 44%
    08:00 0°C° 0 mm 1 mps 760 mmHg 39%
    09:00 -1°C° 0 mm 2 mps 759 mmHg 35%
    10:00 +1°C° 0 mm 2 mps 759 mmHg 30%
    11:00 +2°C° 0 mm 2 mps 759 mmHg 28%
    12:00 +4°C° 0 mm 2 mps 759 mmHg 27%
    13:00 +4°C° 0 mm 3 mps 759 mmHg 25%
    14:00 +4°C° 0 mm 2 mps 758 mmHg 29%
    15:00 +4°C° 0 mm 2 mps 758 mmHg 33%
    16:00 +4°C° 0 mm 2 mps 758 mmHg 37%
    17:00 +3°C° 0 mm 2 mps 758 mmHg 40%
    18:00 +1°C° 0 mm 2 mps 758 mmHg 43%
    19:00 -1°C° 0 mm 2 mps 758 mmHg 46%
    20:00 -1°C° 0 mm 2 mps 758 mmHg 47%
    21:00 -1°C° 0 mm 3 mps 758 mmHg 48%
    22:00 -1°C° 0 mm 3 mps 758 mmHg 48%
    23:00 -1°C° 0 mm 3 mps 758 mmHg 50%

    25 February, Monday

    Time Temperature Precipitation Wind Pressure Humidity
    00:00 -1°C° 0 mm 3 mps 758 mmHg 51%
    01:00 -1°C° 0 mm 3 mps 758 mmHg 52%
    02:00 -1°C° 0 mm 3 mps 758 mmHg 53%
    03:00 -2°C° 0 mm 4 mps 758 mmHg 54%
    04:00 -2°C° 0 mm 4 mps 757 mmHg 55%
    05:00 -2°C° 0 mm 4 mps 757 mmHg 57%
    06:00 -2°C° 0 mm 4 mps 757 mmHg 59%
    07:00 -2°C° 0 mm 4 mps 757 mmHg 60%
    08:00 -1°C° 0 mm 4 mps 757 mmHg 58%
    09:00 +1°C° 0 mm 4 mps 757 mmHg 57%
    10:00 +3°C° 0 mm 4 mps 757 mmHg 55%
    11:00 +4°C° 0 mm 4 mps 757 mmHg 57%
    12:00 +5°C° 0 mm 4 mps 757 mmHg 58%
    13:00 +6°C° 0 mm 4 mps 757 mmHg 60%
    14:00 +6°C° 0 mm 4 mps 757 mmHg 64%
    15:00 +5°C° 0 mm 4 mps 756 mmHg 68%
    16:00 +5°C° 0 mm 3 mps 756 mmHg 72%
    17:00 +4°C° 0 mm 3 mps 756 mmHg 78%
    18:00 +4°C° 0 mm 2 mps 757 mmHg 84%
    19:00 +3°C° 0 mm 2 mps 757 mmHg 90%
    20:00 +2°C° 0 mm 2 mps 757 mmHg 91%
    21:00 +2°C° 0 mm 2 mps 756 mmHg 92%
    22:00 +2°C° 0 mm 2 mps 756 mmHg 93%
    23:00 +1°C° 0 mm 2 mps 756 mmHg 93%

    26 February, Tuesday

    Time Temperature Precipitation Wind Pressure Humidity
    00:00 0°C° 0 mm 3 mps 755 mmHg 93%
    01:00 0°C° 0 mm 3 mps 755 mmHg 93%
    02:00 0°C° 0 mm 3 mps 754 mmHg 92%
    03:00 0°C° 0 mm 4 mps 754 mmHg 92%
    04:00 0°C° 0 mm 4 mps 753 mmHg 91%
    05:00 0°C° 0 mm 5 mps 753 mmHg 89%
    06:00 0°C° 0 mm 5 mps 752 mmHg 86%
    07:00 -1°C° 0 mm 6 mps 752 mmHg 84%
    08:00 +1°C° 0 mm 6 mps 751 mmHg 79%
    09:00 +2°C° 0 mm 6 mps 751 mmHg 75%
    10:00 +2°C° 0 mm 6 mps 751 mmHg 70%
    11:00 +3°C° 0.1 mm 6 mps 750 mmHg 71%
    12:00 +3°C° 0.1 mm 6 mps 750 mmHg 73%
    13:00 +3°C° 0.1 mm 6 mps 750 mmHg 74%
    14:00 +3°C° 0 mm 6 mps 750 mmHg 73%
    15:00 +4°C° 0 mm 6 mps 750 mmHg 72%
    16:00 +4°C° 0 mm 6 mps 750 mmHg 71%
    17:00 +3°C° 0 mm 6 mps 750 mmHg 75%
    18:00 +3°C° 0 mm 6 mps 750 mmHg 79%
    19:00 +2°C° 0 mm 6 mps 750 mmHg 83%
    20:00 +2°C° 0 mm 5 mps 750 mmHg 81%
    21:00 +1°C° 0 mm 5 mps 750 mmHg 78%
    22:00 +1°C° 0 mm 5 mps 750 mmHg 75%
    23:00 0°C° 0 mm 5 mps 751 mmHg 77%

    27 February, Wednesday

    Time Temperature Precipitation Wind Pressure Humidity
    00:00 0°C° 0 mm 4 mps 751 mmHg 79%
    01:00 -1°C° 0 mm 4 mps 751 mmHg 80%
    02:00 -1°C° 0 mm 4 mps 751 mmHg 83%
    03:00 -2°C° 0 mm 4 mps 751 mmHg 85%
    04:00 -1°C° 0 mm 3 mps 751 mmHg 88%
    05:00 -1°C° 0 mm 3 mps 751 mmHg 89%
    06:00 -1°C° 0 mm 3 mps 751 mmHg 90%
    07:00 -1°C° 0 mm 3 mps 752 mmHg 91%
    08:00 0°C° 0 mm 3 mps 752 mmHg 83%
    09:00 +2°C° 0 mm 3 mps 752 mmHg 75%
    10:00 +3°C° 0 mm 3 mps 752 mmHg 67%
    11:00 +4°C° 0 mm 3 mps 751 mmHg 61%
    12:00 +5°C° 0 mm 3 mps 751 mmHg 55%
    13:00 +8°C° 0 mm 3 mps 751 mmHg 49%
    14:00 +8°C° 0 mm 3 mps 750 mmHg 49%
    15:00 +7°C° 0 mm 3 mps 750 mmHg 50%
    16:00 +7°C° 0 mm 3 mps 749 mmHg 51%
    17:00 +5°C° 0 mm 3 mps 749 mmHg 56%
    18:00 +4°C° 0 mm 3 mps 749 mmHg 61%
    19:00 +3°C° 0 mm 3 mps 748 mmHg 66%
    20:00 +3°C° 0 mm 4 mps 748 mmHg 65%
    21:00 +1°C° 0 mm 4 mps 747 mmHg 64%
    22:00 +1°C° 0 mm 4 mps 747 mmHg 63%
    23:00 +1°C° 0 mm 4 mps 746 mmHg 60%
    Show more